This is the latest recevied weather packets stored in our database for station/object UA1CAS-13. If no packets are shown the sender has not sent any weather packets the latest 10 day(s).
| Time | Temp. | Humidity | Pressure | Rain* | Wind** | Luminosity | Snow |
|---|---|---|---|---|---|---|---|
| 1778103203 | 6.67° C | 65% | 1013 hPa | - | - | - | - |
| 1778102302 | 7.22° C | 63% | 1012 hPa | - | - | - | - |
| 1778101400 | 7.22° C | 62% | 1012 hPa | - | - | - | - |
| 1778100499 | 7.78° C | 59% | 1012 hPa | - | - | - | - |
| 1778099598 | 7.78° C | 58% | 1012 hPa | - | - | - | - |
| 1778098697 | 8.33° C | 57% | 1012 hPa | - | - | - | - |
| 1778097796 | 8.89° C | 55% | 1012 hPa | - | - | - | - |
| 1778096895 | 9.44° C | 53% | 1012 hPa | - | - | - | - |
| 1778095994 | 9.44° C | 52% | 1012 hPa | - | - | - | - |
| 1778095093 | 9.44° C | 50% | 1012 hPa | - | - | - | - |
| 1778094191 | 10° C | 50% | 1012 hPa | - | - | - | - |
| 1778093290 | 10° C | 49% | 1012 hPa | - | - | - | - |
| 1778092389 | 10.56° C | 48% | 1012 hPa | - | - | - | - |
| 1778091488 | 10.56° C | 46% | 1012 hPa | - | - | - | - |
| 1778090587 | 11.11° C | 45% | 1012 hPa | - | - | - | - |
| 1778089686 | 11.11° C | 43% | 1011 hPa | - | - | - | - |
| 1778088785 | 11.11° C | 35% | 1011 hPa | - | - | - | - |
| 1778087884 | 11.11° C | 33% | 1011 hPa | - | - | - | - |
| 1778086983 | 11.67° C | 29% | 1011 hPa | - | - | - | - |
| 1778086082 | 12.22° C | 30% | 1011 hPa | - | - | - | - |
| 1778085181 | 12.78° C | 28% | 1011 hPa | - | - | - | - |
| 1778084280 | 12.78° C | 26% | 1011 hPa | - | - | - | - |
| 1778083379 | 12.78° C | 26% | 1010 hPa | - | - | - | - |
| 1778082476 | 13.33° C | 23% | 1005 hPa | - | - | - | - |
| 1778081575 | 13.33° C | 24% | 1010 hPa | - | - | - | - |
* Rain since midnight (hover to see other rain measurements)
** Current wind speed in m/s (hover to see current wind gust speed)